Location: Bogis-Bossey
(46.3500°N, 6.1667°E)
Time: 16:48:47
(UTC+00:00)

H-2A R/B - Pass Details

Date: 17 August 2022
Orbit: 575 x 653 km, 98.5° (Epoch: 01 October)

Event Time Altitude Azimuth Distance (km) Brightness Sun altitude
Rises 19:41:36 0° 21° (NNE) 2,909 5.7 -10.1°
Reaches altitude 10° 19:43:57 10° 29° (NNE) 1,984 4.7 -10.5°
Maximum altitude 19:47:59 38° 98° (E) 930 2.5 -11.1°
Drops below altitude 10° 19:51:53 10° 167° (SSE) 1,925 4.2 -11.6°
Enters shadow 19:52:34 - 171° (S) 2,184 4.5 -11.7°
